Latest Weather Observations for Newcastle Nobbys

IDN60801

Issued at 5:35 pm EST Friday 22 August 2014 (issued every 30 minutes, with the page automatically refreshed every 10 minutes)

About weather observations | Map of weather stations | Latest weather observations for NSW | Other Formats
Station Details ID: 061055 Name: NEWCASTLE NOBBYS SIGNAL STATION AWS Lat: -32.92 Lon: 151.80 Height: 33.0 m
Data from the previous 72 hours. | See also: Recent months at Newcastle Nobbys
Date/Time
EST
Temp
°C
App
Temp
°C
Dew
Point
Rel
Hum
%
Delta-T
°C
Wind Press
QNH
hPa
Press
MSL
hPa
Rain
since 9 am
mm
Dir
 
Spd
km/h
Gust
km/h
Spd
kts
Gust
kts
22/05:30pm 16.6 13.1 12.2 75 2.4 SSE 22 26 12 14 - - 0.2
22/05:00pm 16.9 13.3 11.8 72 2.8 SSE 22 26 12 14 - - 0.2
22/04:30pm 16.7 13.0 11.4 71 2.9 S 22 26 12 14 - - 0.2
22/04:00pm 16.6 13.0 11.7 73 2.7 S 22 28 12 15 - - 0.2
22/03:30pm 16.6 12.6 11.7 73 2.7 S 24 28 13 15 - - 0.2
22/03:00pm 16.4 12.5 12.0 75 2.4 S 24 28 13 15 - - 0.2
22/02:30pm 16.4 12.5 12.2 76 2.3 S 24 28 13 15 - - 0.2
22/02:00pm 16.4 12.6 12.4 77 2.2 S 24 26 13 14 - - 0.2
22/01:30pm 16.4 13.0 12.6 78 2.1 S 22 26 12 14 - - 0.2
22/01:00pm 16.3 12.5 12.5 78 2.1 S 24 26 13 14 - - 0.2
22/12:30pm 16.4 13.0 12.6 78 2.1 S 22 24 12 13 - - 0.2
22/12:00pm 16.4 13.7 12.8 79 2.0 SSW 19 24 10 13 - - 0.2
22/11:30am 15.9 12.5 12.5 80 1.9 S 22 26 12 14 - - 0.2
22/11:00am 16.1 13.4 13.0 82 1.7 SSW 19 24 10 13 - - 0.0
22/10:30am 16.1 14.1 12.7 80 1.9 SSW 15 22 8 12 - - 0.0
22/10:00am 15.8 13.8 12.7 82 1.7 SSW 15 20 8 11 - - 0.0
22/09:30am 15.2 13.5 12.5 84 1.5 SSW 13 19 7 10 - - 0.0
22/09:00am 15.4 14.4 13.4 88 1.1 SSW 11 17 6 9 - - 15.0
22/08:30am 14.3 13.1 12.7 90 0.9 SSW 11 17 6 9 - - 15.0
22/08:00am 14.0 13.1 12.6 91 0.8 WSW 9 15 5 8 - - 15.0
22/07:30am 13.3 12.4 12.5 95 0.4 WSW 9 13 5 7 - - 15.0
22/07:00am 12.6 11.8 11.8 95 0.4 WSW 7 11 4 6 - - 15.0
22/06:30am 12.2 11.3 11.4 95 0.4 W 7 9 4 5 - - 15.0
22/06:00am 12.2 11.3 11.3 94 0.5 W 7 7 4 4 - - 15.0
22/05:30am 12.5 11.6 11.4 93 0.6 W 7 7 4 4 - - 15.0
22/05:00am 12.9 12.6 11.6 92 0.7 W 4 4 2 2 - - 15.0
22/04:30am 12.8 12.1 11.5 92 0.7 WSW 6 7 3 4 - - 15.0
22/04:00am 13.1 12.6 12.0 93 0.6 W 6 7 3 4 - - 15.0
22/03:30am 13.2 12.7 11.9 92 0.7 N 6 7 3 4 - - 14.8
22/03:00am 13.6 11.0 12.0 90 0.9 E 17 26 9 14 - - 13.0
22/02:30am 13.6 13.8 11.8 89 1.0 S 2 7 1 4 - - 11.8
22/02:00am 13.7 11.2 12.4 92 0.7 ESE 17 26 9 14 - - 10.6
22/01:30am 13.4 12.0 12.1 92 0.7 SE 11 17 6 9 - - 10.4
22/01:00am 14.1 12.7 12.3 89 1.0 NNE 11 15 6 8 - - 0.8
22/12:30am 13.9 12.0 11.9 88 1.1 NE 13 17 7 9 - - 0.8
22/12:00am 14.5 9.4 11.8 84 1.5 ESE 30 35 16 19 - - 0.8
 
Date/Time
EST
Temp
°C
App
Temp
°C
Dew
Point
Rel
Hum
%
Delta-T
°C
Wind Press
QNH
hPa
Press
MSL
hPa
Rain
since 9 am
mm
Dir
 
Spd
km/h
Gust
km/h
Spd
kts
Gust
kts
21/11:30pm 14.9 9.3 12.0 83 1.6 ESE 33 39 18 21 - - 0.8
21/11:00pm 15.1 12.0 11.7 80 1.8 SE 19 22 10 12 - - 0.8
21/10:30pm 14.6 11.8 12.5 87 1.1 ESE 19 22 10 12 - - 0.6
21/10:00pm 13.7 13.4 12.6 93 0.6 WSW 6 9 3 5 - - 0.6
21/09:30pm 13.5 12.9 12.2 92 0.7 WSW 7 11 4 6 - - 0.6
21/09:00pm 14.1 13.3 12.8 92 0.7 SSW 9 13 5 7 - - 0.2
21/08:30pm 13.9 12.6 12.5 91 0.8 SW 11 17 6 9 - - 0.2
21/08:00pm 14.1 12.1 12.8 92 0.7 SSW 15 19 8 10 - - 0.2
21/07:30pm 13.7 11.9 12.1 90 0.9 SW 13 17 7 9 - - 0.2
21/07:00pm 14.2 12.5 12.4 89 1.0 SSW 13 20 7 11 - - 0.2
21/06:30pm 14.7 11.7 12.4 86 1.3 SSW 20 28 11 15 - - 0.2
21/06:00pm 15.0 11.1 12.1 83 1.6 S 24 28 13 15 - - 0.2
21/05:30pm 14.9 10.6 11.9 82 1.6 S 26 30 14 16 - - 0.2
21/05:00pm 15.4 11.1 12.0 80 1.8 S 26 30 14 16 - - 0.2
21/04:30pm 16.2 12.1 11.4 73 2.6 SSE 24 30 13 16 - - 0.2
21/04:00pm 15.7 11.1 11.1 74 2.5 SSE 26 32 14 17 - - 0.2
21/03:30pm 15.3 10.4 11.3 77 2.1 S 28 32 15 17 - - 0.2
21/03:00pm 15.1 10.4 11.9 81 1.7 SSE 28 33 15 18 - - 0.2
21/02:30pm 15.0 9.7 11.4 79 1.9 SSE 30 35 16 19 - - 0.2
21/02:00pm 15.9 13.0 11.1 73 2.6 SE 17 20 9 11 - - 0.2
21/01:30pm 14.7 10.1 10.9 78 2.0 ESE 26 32 14 17 - - 0.2
21/01:00pm 14.6 10.2 11.7 83 1.6 SE 26 35 14 19 - - 0.2
21/12:30pm 14.6 13.7 12.6 88 1.1 SW 9 20 5 11 - - 0.2
21/12:00pm 14.4 12.7 12.3 87 1.1 SW 13 17 7 9 - - 0.2
21/11:30am 14.7 12.9 12.2 85 1.4 SW 13 19 7 10 - - 0.2
21/11:00am 14.7 12.8 13.1 90 0.9 SW 15 20 8 11 - - 0.2
21/10:30am 13.6 10.9 11.7 88 1.0 SSW 17 26 9 14 - - 0.0
21/10:00am 13.6 11.3 11.7 88 1.0 WSW 15 26 8 14 - - 0.0
21/09:30am 13.0 10.9 11.2 89 0.9 WSW 13 19 7 10 - - 0.0
21/09:00am 13.5 11.9 11.7 89 1.0 SW 11 15 6 8 - - 1.0
21/08:30am 12.4 10.7 11.3 93 0.6 WSW 11 15 6 8 - - 0.8
21/08:00am 12.0 9.4 10.7 92 0.7 SW 15 20 8 11 - - 0.8
21/07:30am 11.9 9.2 10.5 91 0.7 SW 15 22 8 12 - - 0.6
21/07:00am 12.1 9.0 10.2 88 1.0 WSW 17 24 9 13 - - 0.2
21/06:30am 12.2 9.9 10.3 88 1.0 WSW 13 17 7 9 - - 0.2
21/06:00am 12.4 10.4 10.3 87 1.1 SW 11 20 6 11 - - 0.2
21/05:30am 12.5 9.5 10.7 89 0.9 SW 17 28 9 15 - - 0.2
21/05:00am 12.2 9.1 10.3 88 1.0 SW 17 22 9 12 - - 0.2
21/04:30am 12.1 9.7 10.2 88 1.0 SW 13 19 7 10 - - 0.2
21/04:00am 12.3 10.3 10.2 87 1.1 SW 11 17 6 9 - - 0.2
21/03:30am 12.3 9.9 10.2 87 1.1 SW 13 20 7 11 - - 0.2
21/03:00am 12.2 9.9 10.3 88 1.0 W 13 17 7 9 - - 0.2
21/02:30am 12.3 10.0 10.5 89 0.9 WSW 13 19 7 10 - - 0.2
21/02:00am 12.8 10.3 10.9 88 1.0 W 15 20 8 11 - - 0.2
21/01:30am 15.4 11.3 10.0 70 2.8 S 22 28 12 15 - - 0.2
21/01:00am 14.9 12.1 9.9 72 2.6 S 15 17 8 9 - - 0.2
21/12:30am 14.2 7.9 9.6 74 2.4 SSE 33 43 18 23 - - 0.2
21/12:00am 15.0 8.4 8.7 66 3.2 SSE 33 37 18 20 - - 0.2
 
Date/Time
EST
Temp
°C
App
Temp
°C
Dew
Point
Rel
Hum
%
Delta-T
°C
Wind Press
QNH
hPa
Press
MSL
hPa
Rain
since 9 am
mm
Dir
 
Spd
km/h
Gust
km/h
Spd
kts
Gust
kts
20/11:30pm 15.3 9.2 8.3 63 3.5 SSE 30 35 16 19 - - 0.2
20/11:00pm 15.0 9.3 9.8 71 2.7 S 30 33 16 18 - - 0.2
20/10:30pm 15.2 11.0 11.0 76 2.2 S 24 39 13 21 - - 0.2
20/10:00pm 14.8 9.3 10.6 76 2.2 S 30 33 16 18 - - 0.2
20/09:30pm 15.3 9.0 9.7 69 2.9 S 33 39 18 21 - - 0.2
20/09:00pm 15.4 9.4 10.0 70 2.8 S 32 37 17 20 - - 0.2
20/08:30pm 15.3 9.4 10.5 73 2.5 S 32 37 17 20 - - 0.2
20/08:00pm 15.1 8.5 9.9 71 2.7 S 35 44 19 24 - - 0.2
20/07:30pm 14.9 8.6 10.9 77 2.1 S 35 43 19 23 - - 0.2
20/07:00pm 14.6 6.9 10.2 75 2.3 S 41 46 22 25 - - 0.2
20/06:30pm 14.1 8.5 12.1 88 1.1 SSE 33 44 18 24 - - 0.2
20/06:00pm 13.9 6.6 11.6 86 1.2 SSE 41 48 22 26 - - 0.2
20/05:54pm 14.5 7.1 11.1 80 1.8 SSE 41 44 22 24 - - 0.2
20/05:30pm 14.1 8.6 10.7 80 1.8 SSW 30 39 16 21 - - 0.2
20/05:00pm 13.7 7.4 10.9 83 1.5 SSW 35 44 19 24 - - 0.2
20/04:30pm 14.3 8.4 10.3 77 2.1 SSW 32 43 17 23 - - 0.2
20/04:00pm 14.0 10.4 10.4 79 1.9 SW 20 33 11 18 - - 0.2
20/03:30pm 13.2 9.3 10.9 86 1.2 SSW 22 32 12 17 - - 0.2
20/03:00pm 13.5 7.2 11.2 86 1.2 SSW 35 43 19 23 - - 0.2
20/02:30pm 13.6 10.6 10.8 83 1.5 SW 17 26 9 14 - - 0.2
20/02:00pm 12.8 8.3 10.2 84 1.3 SW 24 39 13 21 - - 0.2
20/01:30pm 13.8 8.1 9.8 77 2.1 SSW 30 43 16 23 - - 0.2
20/01:00pm 14.7 8.3 9.5 71 2.7 SSW 33 43 18 23 - - 0.2
20/12:30pm 14.7 9.8 10.1 74 2.4 SSW 26 37 14 20 - - 0.0
20/12:00pm 15.4 10.4 9.7 69 3.0 SSW 26 35 14 19 - - 0.0
20/11:30am 14.9 8.9 10.1 73 2.5 SSW 32 43 17 23 - - 0.0
20/11:00am 14.9 9.6 9.7 71 2.7 SSW 28 39 15 21 - - 0.0
20/10:30am 15.1 11.4 9.5 69 2.9 SW 19 30 10 16 - - 0.0
20/10:00am 14.0 10.0 9.0 72 2.5 SW 20 32 11 17 - - 0.0
20/09:30am 13.4 9.8 8.5 72 2.5 SW 17 28 9 15 - - 0.0
20/09:00am 13.4 9.5 8.5 72 2.5 SW 19 26 10 14 - - 16.0
20/08:30am 12.8 8.6 8.1 73 2.3 SW 20 32 11 17 - - 16.0
20/08:00am 12.6 8.3 7.9 73 2.3 SW 20 33 11 18 - - 16.0
20/07:30am 13.0 9.0 8.3 73 2.3 SW 19 32 10 17 - - 16.0
20/07:00am 12.0 7.6 7.3 73 2.3 WSW 20 35 11 19 - - 16.0
20/06:30am 12.0 7.5 7.1 72 2.4 WSW 20 32 11 17 - - 16.0
20/06:00am 11.8 7.4 7.3 74 2.2 WSW 20 32 11 17 - - 16.0
20/05:30am 12.1 7.8 7.8 75 2.1 SW 20 35 11 19 - - 16.0
20/05:00am 12.2 7.0 7.3 72 2.4 SW 24 35 13 19 - - 16.0
20/04:30am 12.5 7.4 7.8 73 2.3 SW 24 39 13 21 - - 16.0
20/04:00am 12.4 7.0 7.9 74 2.2 SW 26 41 14 22 - - 16.0
20/03:30am 12.3 7.7 8.2 76 2.0 SW 22 33 12 18 - - 16.0
20/03:00am 12.0 7.4 8.1 77 1.9 WSW 22 39 12 21 - - 16.0
20/02:30am 11.6 8.2 9.2 85 1.2 SW 17 30 9 16 - - 16.0
20/02:00am 11.3 7.6 9.4 88 1.0 SW 19 28 10 15 - - 15.8
20/01:30am 11.8 8.2 9.7 87 1.1 SW 19 35 10 19 - - 15.8
20/01:00am 12.2 7.3 9.8 85 1.2 SSW 26 41 14 22 - - 15.8
20/12:30am 12.1 7.1 9.7 85 1.2 SW 26 41 14 22 - - 15.4
20/12:00am 12.6 7.9 9.2 80 1.7 SW 24 37 13 20 - - 15.2
 
Date/Time
EST
Temp
°C
App
Temp
°C
Dew
Point
Rel
Hum
%
Delta-T
°C
Wind Press
QNH
hPa
Press
MSL
hPa
Rain
since 9 am
mm
Dir
 
Spd
km/h
Gust
km/h
Spd
kts
Gust
kts
19/11:30pm 12.6 7.6 9.6 82 1.5 SW 26 41 14 22 - - 15.2
19/11:00pm 12.4 7.9 10.0 85 1.2 SW 24 33 13 18 - - 15.2
19/10:30pm 12.3 8.2 10.2 87 1.1 SW 22 33 12 18 - - 15.2
19/10:00pm 12.4 8.6 11.0 91 0.7 SW 22 33 12 18 - - 14.4
19/09:45pm 12.6 7.6 10.8 89 0.9 SW 28 48 15 26 - - 13.0
19/09:30pm 12.6 8.3 10.8 89 0.9 SW 24 37 13 20 - - 11.8
19/09:00pm 12.9 8.3 11.0 88 1.0 SW 26 44 14 24 - - 10.8
19/08:30pm 12.8 8.2 11.2 90 0.8 SW 26 37 14 20 - - 10.4
19/08:00pm 12.9 8.1 11.5 91 0.7 SW 28 43 15 23 - - 8.2
19/07:30pm 13.2 9.1 11.4 89 1.0 SW 24 33 13 18 - - 7.0
19/07:00pm 13.2 9.1 11.3 88 1.0 SW 24 39 13 21 - - 6.8
19/06:30pm 13.3 9.2 11.5 89 1.0 SW 24 41 13 22 - - 6.8
19/06:00pm 13.6 9.2 11.8 89 1.0 SW 26 44 14 24 - - 6.8

Other Formats:

Comma delimited format used in spreadsheet applications
http://www.bom.gov.au/fwo/IDN60801/IDN60801.94774.axf

JavaScript Object Notation format (JSON) in row-major order
http://www.bom.gov.au/fwo/IDN60801/IDN60801.94774.json